When you browse on this site, cookies collect data to enhance your experience and personalize the content and advertising you see.
Visit our Privacy Policy to learn more. By continuing to use the site, you agree to this use of cookies and data.
  • In Hungary
  • List of Countries
  • For 7 days
  • Water Temperature
  • Weather Map
  • News
  • Weather Widgets
  • user-avatar
    Login

    Hourly Weather Atamanovka

    Today, 18 October, Friday

    Time Temperature Precipitation Wind Pressure Humidity
    00:00 +14°C° 0 mm 4 mps 761 mmHg 71%
    01:00 +13°C° 0 mm 3 mps 761 mmHg 74%
    02:00 +13°C° 0 mm 3 mps 761 mmHg 76%
    03:00 +12°C° 0 mm 3 mps 761 mmHg 82%
    04:00 +12°C° 0 mm 3 mps 761 mmHg 84%
    05:00 +11°C° 0 mm 3 mps 761 mmHg 86%
    06:00 +11°C° 0 mm 3 mps 761 mmHg 88%
    07:00 +12°C° 0 mm 3 mps 761 mmHg 85%
    08:00 +13°C° 0 mm 3 mps 761 mmHg 82%
    09:00 +13°C° 0 mm 3 mps 761 mmHg 79%
    10:00 +16°C° 0 mm 3 mps 761 mmHg 73%
    11:00 +17°C° 0 mm 3 mps 760 mmHg 67%
    12:00 +19°C° 0 mm 3 mps 760 mmHg 61%
    13:00 +20°C° 0 mm 2 mps 760 mmHg 58%
    14:00 +20°C° 0 mm 2 mps 760 mmHg 55%
    15:00 +21°C° 0 mm 2 mps 760 mmHg 52%
    16:00 +21°C° 0 mm 1 mps 760 mmHg 55%
    17:00 +20°C° 0 mm 1 mps 760 mmHg 59%
    18:00 +19°C° 0 mm 1 mps 760 mmHg 62%
    19:00 +19°C° 0 mm 1 mps 760 mmHg 64%
    20:00 +17°C° 0 mm 2 mps 760 mmHg 66%
    21:00 +17°C° 0 mm 2 mps 760 mmHg 69%
    22:00 +16°C° 0 mm 2 mps 760 mmHg 70%
    23:00 +16°C° 0 mm 3 mps 760 mmHg 71%

    Tomorrow, 19 October, Saturday

    Time Temperature Precipitation Wind Pressure Humidity
    00:00 +14°C° 0 mm 3 mps 760 mmHg 73%
    01:00 +14°C° 0 mm 3 mps 760 mmHg 73%
    02:00 +14°C° 0 mm 3 mps 760 mmHg 72%
    03:00 +13°C° 0 mm 3 mps 760 mmHg 72%
    04:00 +13°C° 0 mm 3 mps 760 mmHg 73%
    05:00 +13°C° 0 mm 3 mps 761 mmHg 73%
    06:00 +13°C° 0 mm 3 mps 761 mmHg 74%
    07:00 +13°C° 0 mm 3 mps 761 mmHg 70%
    08:00 +14°C° 0 mm 3 mps 761 mmHg 66%
    09:00 +16°C° 0 mm 3 mps 762 mmHg 62%
    10:00 +18°C° 0 mm 3 mps 762 mmHg 56%
    11:00 +19°C° 0 mm 3 mps 762 mmHg 51%
    12:00 +21°C° 0 mm 3 mps 762 mmHg 45%
    13:00 +21°C° 0 mm 3 mps 762 mmHg 43%
    14:00 +22°C° 0 mm 3 mps 762 mmHg 41%
    15:00 +24°C° 0 mm 3 mps 761 mmHg 39%
    16:00 +21°C° 0 mm 2 mps 761 mmHg 43%
    17:00 +20°C° 0 mm 2 mps 761 mmHg 46%
    18:00 +19°C° 0 mm 2 mps 762 mmHg 50%
    19:00 +18°C° 0 mm 2 mps 762 mmHg 52%
    20:00 +18°C° 0 mm 3 mps 762 mmHg 54%
    21:00 +17°C° 0 mm 3 mps 762 mmHg 56%
    22:00 +17°C° 0 mm 3 mps 763 mmHg 58%
    23:00 +16°C° 0 mm 3 mps 763 mmHg 59%

    Day after tomorrow, 20 October, Sunday

    Time Temperature Precipitation Wind Pressure Humidity
    00:00 +16°C° 0 mm 3 mps 763 mmHg 60%
    01:00 +14°C° 0 mm 3 mps 763 mmHg 62%
    02:00 +14°C° 0 mm 3 mps 763 mmHg 64%
    03:00 +13°C° 0 mm 3 mps 763 mmHg 65%
    04:00 +13°C° 0 mm 3 mps 763 mmHg 67%
    05:00 +13°C° 0 mm 3 mps 763 mmHg 68%
    06:00 +12°C° 0 mm 3 mps 764 mmHg 69%
    07:00 +13°C° 0 mm 4 mps 764 mmHg 66%
    08:00 +14°C° 0 mm 4 mps 764 mmHg 63%
    09:00 +15°C° 0 mm 4 mps 764 mmHg 59%
    10:00 +18°C° 0 mm 4 mps 764 mmHg 54%
    11:00 +19°C° 0 mm 4 mps 764 mmHg 49%
    12:00 +21°C° 0 mm 4 mps 764 mmHg 44%
    13:00 +22°C° 0 mm 4 mps 764 mmHg 43%
    14:00 +22°C° 0 mm 4 mps 764 mmHg 41%
    15:00 +23°C° 0 mm 4 mps 764 mmHg 40%
    16:00 +21°C° 0 mm 4 mps 764 mmHg 44%
    17:00 +20°C° 0 mm 4 mps 764 mmHg 47%
    18:00 +19°C° 0 mm 4 mps 764 mmHg 51%
    19:00 +18°C° 0 mm 4 mps 764 mmHg 52%
    20:00 +18°C° 0 mm 4 mps 764 mmHg 53%
    21:00 +17°C° 0 mm 4 mps 764 mmHg 54%
    22:00 +17°C° 0 mm 4 mps 764 mmHg 56%
    23:00 +15°C° 0 mm 4 mps 764 mmHg 59%

    21 October, Monday

    Time Temperature Precipitation Wind Pressure Humidity
    00:00 +14°C° 0 mm 3 mps 764 mmHg 61%
    01:00 +14°C° 0 mm 3 mps 764 mmHg 63%
    02:00 +13°C° 0 mm 3 mps 764 mmHg 64%
    03:00 +13°C° 0 mm 3 mps 764 mmHg 66%
    04:00 +13°C° 0 mm 3 mps 764 mmHg 67%
    05:00 +12°C° 0 mm 3 mps 765 mmHg 67%
    06:00 +12°C° 0 mm 4 mps 765 mmHg 68%
    07:00 +13°C° 0 mm 4 mps 765 mmHg 66%
    08:00 +14°C° 0 mm 4 mps 765 mmHg 63%
    09:00 +15°C° 0 mm 4 mps 765 mmHg 60%
    10:00 +17°C° 0 mm 4 mps 765 mmHg 55%
    11:00 +19°C° 0 mm 4 mps 765 mmHg 50%
    12:00 +20°C° 0 mm 5 mps 765 mmHg 45%
    13:00 +21°C° 0 mm 4 mps 765 mmHg 43%
    14:00 +21°C° 0 mm 4 mps 765 mmHg 41%
    15:00 +22°C° 0 mm 4 mps 764 mmHg 39%
    16:00 +21°C° 0 mm 4 mps 764 mmHg 43%
    17:00 +19°C° 0 mm 3 mps 764 mmHg 46%
    18:00 +18°C° 0 mm 3 mps 764 mmHg 49%
    19:00 +18°C° 0 mm 3 mps 764 mmHg 53%
    20:00 +17°C° 0 mm 3 mps 765 mmHg 56%
    21:00 +16°C° 0 mm 3 mps 765 mmHg 59%
    22:00 +16°C° 0 mm 3 mps 765 mmHg 62%
    23:00 +14°C° 0 mm 3 mps 765 mmHg 64%

    22 October, Tuesday

    Time Temperature Precipitation Wind Pressure Humidity
    00:00 +14°C° 0 mm 3 mps 765 mmHg 67%
    01:00 +13°C° 0 mm 3 mps 764 mmHg 68%
    02:00 +13°C° 0 mm 3 mps 764 mmHg 69%
    03:00 +12°C° 0 mm 3 mps 764 mmHg 70%
    04:00 +12°C° 0 mm 3 mps 764 mmHg 71%
    05:00 +11°C° 0 mm 3 mps 764 mmHg 71%
    06:00 +11°C° 0 mm 3 mps 765 mmHg 72%
    07:00 +12°C° 0 mm 3 mps 764 mmHg 69%
    08:00 +13°C° 0 mm 3 mps 764 mmHg 65%
    09:00 +13°C° 0 mm 4 mps 764 mmHg 62%
    10:00 +16°C° 0 mm 3 mps 764 mmHg 57%
    11:00 +17°C° 0 mm 3 mps 764 mmHg 51%
    12:00 +19°C° 0 mm 3 mps 764 mmHg 46%
    13:00 +20°C° 0 mm 3 mps 763 mmHg 43%
    14:00 +20°C° 0 mm 3 mps 763 mmHg 41%
    15:00 +21°C° 0 mm 2 mps 763 mmHg 39%
    16:00 +20°C° 0 mm 2 mps 763 mmHg 42%
    17:00 +19°C° 0 mm 2 mps 762 mmHg 45%
    18:00 +18°C° 0 mm 1 mps 762 mmHg 48%
    19:00 +18°C° 0 mm 1 mps 762 mmHg 50%
    20:00 +16°C° 0 mm 1 mps 762 mmHg 52%
    21:00 +16°C° 0 mm 1 mps 762 mmHg 54%
    22:00 +15°C° 0 mm 1 mps 762 mmHg 56%
    23:00 +15°C° 0 mm 1 mps 762 mmHg 59%

    23 October, Wednesday

    Time Temperature Precipitation Wind Pressure Humidity
    00:00 +14°C° 0 mm 1 mps 762 mmHg 62%
    01:00 +14°C° 0 mm 1 mps 762 mmHg 63%
    02:00 +14°C° 0 mm 1 mps 762 mmHg 65%
    03:00 +12°C° 0 mm 0 mps 762 mmHg 66%
    04:00 +12°C° 0 mm 0 mps 761 mmHg 66%
    05:00 +12°C° 0 mm 0 mps 761 mmHg 67%
    06:00 +12°C° 0 mm 0 mps 761 mmHg 67%
    07:00 +13°C° 0 mm 0 mps 762 mmHg 63%
    08:00 +14°C° 0 mm 0 mps 762 mmHg 60%
    09:00 +15°C° 0 mm 0 mps 762 mmHg 56%
    10:00 +18°C° 0 mm 1 mps 762 mmHg 52%
    11:00 +19°C° 0 mm 1 mps 762 mmHg 48%
    12:00 +21°C° 0 mm 1 mps 762 mmHg 44%
    13:00 +21°C° 0 mm 1 mps 762 mmHg 43%
    14:00 +21°C° 0 mm 1 mps 762 mmHg 43%
    15:00 +21°C° 0 mm 1 mps 762 mmHg 43%
    16:00 +20°C° 0 mm 1 mps 762 mmHg 46%
    17:00 +19°C° 0 mm 1 mps 762 mmHg 49%
    18:00 +18°C° 0 mm 1 mps 762 mmHg 53%
    19:00 +18°C° 0 mm 1 mps 762 mmHg 54%
    20:00 +16°C° 0 mm 1 mps 762 mmHg 55%
    21:00 +15°C° 0 mm 0 mps 762 mmHg 56%
    22:00 +16°C° 0 mm 1 mps 762 mmHg 58%
    23:00 +15°C° 0 mm 1 mps 762 mmHg 59%
    Show more